Current weather by "City, St" or "zip code"  
 
Advertise Here

Current Conditions: Phoenix, Phoenix Sky Harbor International Airport, AZ

Partly Cloudy


67.0 F

Last Updated on Jan 20 2021, 10:51 am MST
Humidity: 30%
Wind Speed: E 17.3 mph
Barometer 30.12 in
Dewpoint: 34.0 F
Visibility: 10.00 mi
Precip: --
Heat Index: NA
Wind Chill: NA
Current conditions at:

Phoenix, Phoenix Sky Harbor International Airport, AZ (KPHX)

Lat: 33.427799 Lon: 112.003465

Local Radar Image active severe weather and emergency alerts image image weather storm and storm spotter reports image weather observation monitoring service image
Local
Radar
Active
Alerts
Storm Reports Obs
Monitoring

Sign-up For Email & Text Message Weather Alert Notification Services


Advertise Here

Observation History for Phoenix, Phoenix Sky Harbor International Airport, AZ


Time Wind
(mph)
Vis
(mi)
Weather Precip (in) Temperature (F) Relative
Humidity
Wind
Chill
(F)
Heat
Index
(F)
Pressure
Air Dwpt altimeter
(in)
sea level
(mb)
Rmks
10:51 am MST E 17.3 10.00 Partly Cloudy -- 67.0 34.0 30% NA NA 30.12 1018.8
9:51 am MST E 15.0 10.00 Partly Cloudy -- 65.0 33.1 31% NA NA 30.11 1018.7
8:51 am MST E 13.8 10.00 Mostly Cloudy -- 63.0 32.0 31% 61 NA 30.10 1018.3
7:51 am MST E 12.7 10.00 Mostly Cloudy -- 61.0 30.0 31% 59 NA 30.08 1017.6
6:51 am MST E 11.5 10.00 Mostly Cloudy -- 61.0 30.9 32% 59 NA 30.07 1017.2
5:51 am MST E 6.9 10.00 Mostly Cloudy -- 62.0 30.0 30% 62 NA 30.05 1016.6
4:51 am MST NE 6.9 10.00 Mostly Cloudy -- 62.0 28.9 29% 62 NA 30.04 1016.2
3:51 am MST E 9.2 10.00 Mostly Cloudy -- 63.0 28.0 27% 62 NA 30.03 1016.0
2:51 am MST SE 8.1 10.00 Overcast -- 64.0 27.0 25% NA NA 30.06 1016.7
1:51 am MST SE 10.4 10.00 Mostly Cloudy -- 64.0 27.0 25% NA NA 30.04 1016.0
12:51 am MST E 9.2 10.00 Mostly Cloudy -- 63.0 27.0 26% 62 NA 30.01 1015.3
11:51 pm MST E 8.1 10.00 Mostly Cloudy -- 65.0 26.1 23% NA NA 29.99 1014.6
10:51 pm MST E 11.5 10.00 Mostly Cloudy -- 66.0 26.1 22% NA NA 29.96 1013.4
9:51 pm MST E 15.0 G 23.0 10.00 Overcast -- 68.0 26.1 21% NA NA 29.94 1012.9
8:51 pm MST NE 18.4 10.00 Overcast -- 68.0 28.0 22% NA NA 29.92 1012.2
7:51 pm MST NE 13.8 10.00 Overcast -- 69.0 28.0 22% NA NA 29.90 1011.6
6:51 pm MST NE 15.0 10.00 Overcast -- 69.0 28.9 22% NA NA 29.88 1011.0
5:51 pm MST NE 16.1 10.00 A Few Clouds -- 69.0 28.9 22% NA NA 29.86 1010.2
4:51 pm MST NE 15.0 G 18.4 10.00 Mostly Cloudy -- 70.0 32.0 25% NA NA 29.86 1010.0
3:51 pm MST N 8.1 10.00 Mostly Cloudy -- 70.0 37.9 31% NA NA 29.85 1009.8
2:51 pm MST NW 10.4 10.00 Mostly Cloudy -- 68.0 39.0 35% NA NA 29.85 1009.8
1:51 pm MST NW 6.9 10.00 Mostly Cloudy -- 67.0 39.0 36% NA NA 29.87 1010.4
12:51 pm MST N 10.4 10.00 Mostly Cloudy -- 66.0 39.9 39% NA NA 29.88 1010.8
11:51 am MST NE 8.1 10.00 Mostly Cloudy -- 65.0 39.9 40% NA NA 29.90 1011.7

Regional Weather Observation


Phoenix, Phoenix Sky Harbor International Airport, AZ (KPHX)

Partly Cloudy
67.0 F

Glendale, Glendale Municipal Airport, AZ (KGEU)

Partly Cloudy
68.0 F

Luke Air Force Base / Phoenix, AZ (KLUF)

Fair
69.0 F

Goodyear Municipal, AZ (KGYR)

Mostly Cloudy
68.0 F

Scottsdale Airport, AZ (KSDL)

Fair
67.0 F

Buckeye Municipal Airport, AZ (KBXK)

NULL
59.0 F